Starlink 32223

operational
NORAD ID: 60373 Int'l Des: 2024-138 Owner: SPXS Country: US Constellation: starlink
LEOCIRCULAR

About Starlink 32223

Description loading...

Live Position

Loading 3D Globe...

Upcoming Passes

Altitude History

Altitude vs Time

uPlot chart will show altitude changes over time

Two-Line Element Set

1 60373U 24138U 25354.18285196 .00001631 00000-0 67220-4 0 9998
2 60373 53.1611 318.9816 0002168 90.6474 269.4775 15.30192888 78359
Epoch: Dec 20, 2025 • Age: 19 hours

Current Status

Altitude 475.6 km
Velocity 7.63 km/s
Sub-Earth Point 26.32°N, 103.02°W
Launch Date Aug 4, 2024
Age 1.3 years
Type internet

Technical Details

Classification Payload
Mass 730.00 kg
Dry Mass 700.00 kg
Total Mass 730.00 kg
Length 0.30 m
Diameter 4.10 m
Span 29.00 m
Shape Box + pan
Manufacturer SPXS
Bus Type Starlink V2M
Phase Status In Orbit
Owner/State SPXS/US

Large Constellations

Loading constellations...